Precipitable_Water
0.54 0.53 0.53 0.53 0.54 0.50 0.48 0.47 0.47 0.47 0.46 0.45 0.43 0.41 0.40 0.37 0.37 0.37 0.36 0.36 0.37 0.39
0.55 0.55 0.55 0.57 0.56 0.51 0.48 0.46 0.45 0.44 0.43 0.41 0.37 0.35 0.34 0.31 0.30 0.33 0.33 0.33 0.33 0.33
0.55 0.57 0.58 0.56 0.52 0.50 0.48 0.44 0.42 0.41 0.39 0.34 0.32 0.30 0.28 0.25 0.24 0.24 0.25 0.26 0.27 0.27
0.57 0.58 0.57 0.53 0.53 0.50 0.46 0.42 0.41 0.39 0.34 0.30 0.28 0.26 0.24 0.22 0.21 0.19 0.18 0.19 0.20 0.23
0.57 0.57 0.54 0.53 0.52 0.49 0.44 0.42 0.39 0.36 0.30 0.27 0.25 0.24 0.21 0.19 0.18 0.17 0.16 0.16 0.17 0.17
0.55 0.55 0.53 0.52 0.50 0.47 0.43 0.40 0.36 0.32 0.28 0.25 0.23 0.21 0.19 0.17 0.17 0.17 0.16 0.16 0.16 0.16
0.57 0.56 0.56 0.55 0.51 0.46 0.41 0.36 0.33 0.30 0.27 0.24 0.21 0.19 0.17 0.17 0.17 0.17 0.16 0.15 0.16 0.16
0.62 0.60 0.57 0.53 0.50 0.45 0.38 0.33 0.31 0.29 0.25 0.22 0.20 0.18 0.18 0.16 0.16 0.16 0.16 0.15 0.15 0.15
0.62 0.59 0.56 0.55 0.50 0.40 0.35 0.31 0.29 0.26 0.22 0.20 0.20 0.20 0.17 0.16 0.16 0.16 0.15 0.14 0.14 0.14
0.63 0.61 0.59 0.54 0.45 0.36 0.32 0.29 0.27 0.23 0.22 0.20 0.20 0.18 0.17 0.18 0.18 0.17 0.17 0.16 0.14 0.13
0.61 0.56 0.53 0.48 0.39 0.34 0.30 0.27 0.25 0.21 0.20 0.19 0.20 0.19 0.18 0.19 0.18 0.17 0.17 0.16 0.15 0.13
0.59 0.54 0.51 0.42 0.36 0.31 0.28 0.25 0.22 0.21 0.20 0.19 0.19 0.19 0.18 0.18 0.18 0.17 0.17 0.18 0.16 0.14
0.56 0.52 0.46 0.38 0.32 0.29 0.26 0.23 0.21 0.20 0.20 0.21 0.19 0.19 0.18 0.18 0.17 0.16 0.16 0.16 0.16 0.15
0.55 0.51 0.44 0.36 0.32 0.28 0.25 0.23 0.21 0.19 0.20 0.20 0.20 0.18 0.17 0.17 0.16 0.15 0.14 0.14 0.15 0.15
Wind_Speed
22 22 21 21 21 22 22 23 23 23 24 25 26 27 28 30 31 32 33 34 35 35
23 22 22 22 23 23 23 23 23 23 24 26 26 27 28 30 31 32 33 33 34 33
24 23 23 23 23 23 23 23 23 24 25 25 26 27 28 29 30 31 32 32 30 29
25 24 24 24 23 23 23 23 23 24 24 25 26 27 27 28 29 29 30 29 27 22
26 25 24 24 24 23 23 22 23 23 23 23 25 26 26 26 26 28 26 24 21 19
26 25 24 22 22 22 22 22 22 21 21 23 24 24 24 24 24 24 23 20 17 16
26 24 24 23 21 21 20 20 20 20 21 22 22 22 21 21 21 20 19 16 14 13
25 24 21 19 19 19 19 18 18 19 19 20 20 20 19 18 19 18 15 13 13 11
23 21 20 19 19 18 18 17 18 18 19 19 19 17 16 16 15 14 13 12 11 10
23 21 20 19 19 18 17 17 17 17 18 17 16 15 14 13 12 12 11 10 10 9
21 19 18 18 17 17 17 17 16 16 16 15 14 13 12 10 9 9 9 9 8 8
19 18 17 17 16 17 17 16 16 15 15 14 13 12 11 9 8 7 7 7 7 6
19 18 17 17 17 17 16 15 15 14 14 13 11 11 10 9 7 6 5 5 5 5
19 19 18 18 17 16 16 15 14 13 13 11 11 9 9 8 7 6 5 4 4 4
Wind_Direction
256 261 267 274 281 287 290 293 295 296 298 302 303 304 306 308 308 308 308 309 309 307
255 260 267 275 281 287 290 292 294 296 300 302 304 306 307 309 310 310 311 312 311 308
254 260 267 275 281 286 289 290 292 296 300 303 305 307 309 311 312 313 314 314 313 310
253 259 267 275 280 284 285 288 292 296 300 303 306 309 311 313 314 317 317 316 314 310
251 259 267 274 277 280 283 287 292 296 299 304 308 310 312 314 316 318 319 317 315 314
252 259 265 270 275 278 282 286 292 295 300 305 307 310 313 314 317 319 320 320 318 318
252 257 263 267 271 275 281 286 290 294 300 305 308 310 312 314 317 318 319 320 320 323
252 256 258 261 269 273 279 283 289 294 301 306 307 309 310 313 316 318 318 320 321 322
248 250 254 258 265 272 276 281 290 294 300 305 305 307 309 312 316 318 320 321 320 319
246 248 251 256 261 268 273 281 286 292 299 301 299 302 306 309 313 317 323 325 322 322
240 242 247 254 260 266 270 277 281 290 295 293 296 296 299 300 309 318 326 330 332 332
233 236 246 252 257 261 267 272 277 282 286 286 287 290 288 288 296 312 323 331 341 346
229 242 249 253 256 261 265 267 273 277 279 281 280 277 274 275 279 294 308 325 340 358
237 247 251 253 255 258 261 263 265 267 270 273 273 269 263 266 267 273 282 301 323 338